Regional Weather Roundup
Issued by NWS Grand Forks, ND

Home | Current Version | Previous Version | Text Only | Print | Product List | Glossary On
Versions: 1 2 3 4 5 6 7 8 9 10 11 12 13 14 15 16 17 18 19 20 21 22 23 24 25 26 27 28 29 30 31 32 33 34 35 36 37 38 39 40 41 42 43 44 45 46 47 48 49 50
000
ASUS43 KFGF 060731
RWRFGF
PRAIRIE TO PINES  WEATHER ROUNDUP
NATIONAL WEATHER SERVICE EASTERN NORTH DAKOTA/GRAND FORKS ND
100 AM CST SAT FEB 06 2016

 **SATELLITE DATA USED TO AUGMENT SKY COVER AT AUTOMATED STATIONS**
 *****  WEATHER ACROSS EASTERN NORTH DAKOTA  *****

CITY           SKY/WX    TMP DP  RH WIND       PRES   REMARKS
GRAND FORKS    CLOUDY    22  17  81 S8        30.01F WCI  12
GRAND FRKS AFB CLOUDY    22  17  83 S8        30.00F WCI  12
GRAND FRKS NWS   N/A     23 N/A N/A S6          N/A  WCI  16
DEVILS LAKE    CLOUDY    23  20  88 S5        29.94F WCI  17
FARGO          PTCLDY    21  17  84 S9        30.06F WCI  11
WAHPETON ARPT  CLOUDY   N/A N/A N/A SE5       30.10F
$$

 ***** WEATHER ACROSS CENTRAL AND WESTERN NORTH DAKOTA  *****

CITY           SKY/WX    TMP DP  RH WIND       PRES   REMARKS
BISMARCK       CLEAR     24  19  81 CALM      29.99F
MINOT          CLEAR     33  21  61 SW13      29.88F WCI  24
JAMESTOWN      CLOUDY    24  19  81 S7        29.98F WCI  16
MINOT AFB      CLEAR     27  25  91 CALM      29.87F
GARRISON         N/A     22  19  89 S5        29.92F WCI  16
WILLISTON      PTCLDY    29  24  82 SW12      29.89F WCI  19
DICKINSON      PTCLDY    31  21  66 SW17      29.94F WCI  19
HETTINGER      CLOUDY    25  18  74 W7        30.03F WCI  17
$$

 *****  OTHER AIRPORT OBSERVATIONS IN OUR AREA  *****

CITY           SKY/WX    TMP DP  RH WIND       PRES   REMARKS
WALHALLA       FAIR      23  23 100 S3        29.96F
GRAFTON AIRPOR PTSUNNY   19  19 100 S6        30.00F WCI  11
VALLEY CITY AR FAIR      19  19 100 S8        30.02F WCI   9
CANDO          FAIR      16  14  93 SE7       29.93F WCI   6
CAVALIER APRT  PTSUNNY   19  18  93 S7        29.97F WCI  10
GWINNER          N/A     21  19  93 SW12      30.05F WCI   9
ROLLA          CLOUDY    21  19  93 S5        29.89F WCI  15
 ***** THE ABOVE OBSERVATIONS ARE NON NWS ARE NOT QUALITY
       CONTROLLED AND MAY MIS-REPORT RAIN FOR SNOW...
$$

  *****  WEATHER ACROSS NORTHERN MINNESOTA  *****

CITY           SKY/WX    TMP DP  RH WIND       PRES   REMARKS
FLAG ISLAND    CLOUDY    18  16  93 CALM      30.00F
WARROAD        PTCLDY    18  12  79 CALM      30.01F
ROSEAU         CLOUDY    18  12  79 S6        30.00F WCI   9
HALLOCK        CLOUDY    19  16  86 S9        29.99F WCI   9
THF RVR FALLS  PTCLDY    16  14  93 S7        30.02S WCI   6
BAUDETTE       CLOUDY    19  14  81 S3        30.01F
WASKISH        CLOUDY    16  14  93 CALM      30.03S
CROOKSTON      PTCLDY    19  18  93 S10       30.04S WCI   8
$$
  *****  WEATHER ACROSS CENTRAL AND WEST MINNESOTA  *****

CITY           SKY/WX    TMP DP  RH WIND       PRES   REMARKS
FOSSTON        CLOUDY    16  12  86 S5        30.03F WCI   9
BEMIDJI        PTCLDY    16  14  94 S3        30.02F
PARK RAPIDS    CLOUDY    20  18  92 SW7       30.05F FOG     WCI  11
ELBOW LAKE     FAIR      10   8  92 SE5       30.10F WCI   2
WADENA         CLOUDY    19  18  93 S5        30.07F FOG     WCI  13
DETROIT LAKES  CLOUDY    21  21 100 S5        30.06F FOG     WCI  15
MOORHEAD       CLOUDY    16  14  93 S8        30.07F WCI   5
FERGUS FALLS   CLOUDY    16  12  86 S5        30.12F WCI   9
MORRIS MN      SNOW      10   9  92 S3        30.10F VSB<1/4
STAPLES        CLOUDY    19  18  93 SW6       30.09S FOG     WCI  11
$$
  *****  WEATHER ELSEWHERE ACROSS MINNESOTA  *****

CITY           SKY/WX    TMP DP  RH WIND       PRES   REMARKS
DULUTH         CLOUDY    21  14  74 W10       30.04S WCI  10
INTRNTL FALLS  CLOUDY    20  15  81 SW5       30.02F WCI  13
ELY            CLOUDY    19  16  86 W7        30.01S WCI  10
CLOQUET        CLOUDY    21  16  79 SW5       30.06S WCI  15
WHEATON        CLOUDY    21  19  93 S9        30.12F WCI  11
BRAINERD       MOCLDY    21  17  84 W8        30.09F WCI  11
HIBBING        CLOUDY    20  16  84 W5        30.04S WCI  13
ALEXANDRIA     FOG       21  20  96 S6        30.10F VSB 1/4 WCI  13
SAINT CLOUD    CLOUDY    24  20  84 W9        30.12F WCI  14
MINNEAPOLIS    CLOUDY    26  21  81 W9        30.16F WCI  17
$$

  *****  WEATHER ACROSS SOUTH DAKOTA  *****

CITY           SKY/WX    TMP DP  RH WIND       PRES   REMARKS
SIOUX FALLS    FOG       22  20  92 W6        30.19F VSB 1/4 WCI  14
BROOKINGS      FOG       19  18  93 S6        30.14F VSB 1/2 WCI  11
WATERTOWN      CLOUDY    14  11  87 SE3       30.11F
HURON          CLEAR     24  21  88 S9        30.15S WCI  14
SISSETON         N/A     24  17  74 SW7       30.09F WCI  16
ABERDEEN       CLEAR     21  17  84 S7        30.10F WCI  12
MITCHELL       CLEAR     25  22  88 SW8       30.19F WCI  16
PIERRE         CLEAR     29  23  78 SW13      30.12F WCI  19
MOBRIDGE       CLEAR     28  23  81 SE8       30.04F WCI  20
RAPID CITY     CLEAR     24  15  68 CALM      30.11F
$$

  *****  SOME WEATHER IN NEARBY STATES *****

CITY           SKY/WX    TMP DP  RH WIND       PRES   REMARKS
GLASGOW MT     CLOUDY    36  26  67 SW8       29.88F
GREAT FALLS MT CLOUDY    44  21  40 SW32G41   29.98F
CHEYENNE WY    CLEAR     26  10  50 W16G23    30.21S WCI  14
SCOTTSBLUFF NE CLEAR     14   9  80 NE5       30.24S WCI   6
OMAHA NE       CLOUDY    29  27  92 NW6       30.26S WCI  23
DES MOINES IA  CLOUDY    31  26  82 SW7       30.26S WCI  24
DAVENPORT IA   CLOUDY    28  22  78 SW6       30.29F WCI  22
CHICAGO IL     CLOUDY    27  22  81 SW5       30.29F WCI  22
EAU CLAIRE WI  CLOUDY    23  18  81 SW12      30.16F WCI  12
LA CROSSE WI   CLOUDY    26  19  74 S7        30.22F WCI  18
$$

  *****  SOME NATIONAL WEATHER *****

CITY           SKY/WX    TMP DP  RH WIND       PRES   REMARKS
LA GUARDIA NY  CLEAR     33  18  53 NW12      30.35R WCI  24
RALEIGH NC     CLOUDY    28  24  85 CALM      30.40F
ATLANTA GA     CLOUDY    35  17  47 NW6       30.35F
NEW ORLEANS LA PTCLDY    41  31  67 W3        30.37F
OKLAHOMA CITY  CLOUDY    42  32  67 W5        30.28R
ALBUQUERQUE NM CLEAR     30  12  47 NW13      30.48R WCI  20
SALT LAKE CITY PTCLDY    27  20  75 SE9       30.52F WCI  18
LOS ANGELES CA CLEAR     63  25  23 NE5       30.28R
BOISE ID       PTCLDY    35  28  75 SE16      30.42F
SEATTLE WA     PTCLDY    46  39  76 SW22G29   30.21R
$$

*** WEATHER ACROSS MANITOBA...SASKATCHEWAN AND ONTARIO ***
                ***ONTARIO***

CITY           SKY/WX    TMP DP  RH WIND       PRES   REMARKS
GERALDTON      FLURRIES   1   0  92 CALM      29.91F
THUNDER BAY    CLOUDY    18  16  93 W7        30.01S WCI   8
SIOUX LOOKOUT  NOT AVBL
TORONTO        CLOUDY    30  23  74 SW9       30.20F WCI  22
BIG TROUT LK   CLEAR    -24 -29  76 N6        30.07R WCI -40
PICKLE LAKE    NOT AVBL
DRYDEN         CLOUDY    16  12  86 W6        29.97F WCI   7
KENORA         CLOUDY    16  12  86 W2        29.98F
$$
                *** MANITOBA***

CITY           SKY/WX    TMP DP  RH WIND       PRES   REMARKS
BRANDON        CLOUDY    18  16  93 E6        29.89F WCI   9
DAUPHIN        CLOUDY    19  16  86 E6        29.89F WCI  11
ISLAND LAKE    CLEAR    -20 -24  83 E5        30.09S WCI -33
PILOT MOUND      N/A     18  16  93 S7          N/A  WCI   8
THE PAS        FLURRIES  10   7  85 SE14      29.87F WCI  -5
THOMPSON       CRYSTALS -22 -29  69 E5        30.07F WCI -36
WINNIPEG       CLOUDY    18  14  86 SE7       29.98F WCI   8
LYNN LAKE      FLURRIES -13 -18  77 SE9       29.89F WCI -31
CHURCHILL      CLEAR    -35 -42  67 W7        30.19F WCI -55
$$
                ***SASKATCHEWAN***

CITY           SKY/WX    TMP DP  RH WIND       PRES   REMARKS
ESTEVAN        NOT AVBL
KINDERSLEY     CLOUDY    36  28  75 SW7       29.62F
LLOYDMINSTER   CLOUDY    25  21  86 S9        29.51F WCI  15
PRINCE ALBERT  PTCLDY    14  12  92 E5        29.63F WCI   6
REGINA         CLOUDY    21  19  93 SE9       29.73F WCI  11
YORKTON        CLOUDY    23  19  86 SE10      29.76F WCI  12
N. BATTLEFORD  CLEAR     21  19  93 SE8       29.59F WCI  12
LA RONGE       CLOUDY    14  10  85 E7        29.65F WCI   4
SASKATOON      MOCLDY    27  23  86 S6        29.63F WCI  20
SWIFT CURRENT  CLOUDY    43  27  52 W25G32    29.68F
$$
NOTE: THESE ARE AUTOMATED STATIONS WITH LIMITED QUALITY CONTROL
      "FAIR" INDICATES FEW OR NO CLOUDS BELOW 12,000 FEET WITH NO
      SIGNIFICANT WEATHER AND/OR OBSTRUCTIONS TO VISIBILITY.
      SKY/WX - SKY CONDITION AND SIGNIFICANT WEATHER.
      TMP - AIR TEMPERATURE.    DP   - DEWPOINT TEMPERATURE.
      RH  - RELATIVE HUMIDITY.  PRES - PRESSURE.
      HX  - HEAT INDEX.         WCI  - WIND CHILL INDEX.
$



USA.gov is the U.S. government's official web portal to all federal, state and local government web resources and services.